Date String (YYYY-MM-DD hh:mm:ss) UTC,Instrument flags,Ambient pressure (hPa),Sample flow (lpm),Bypass flow (lpm),Sample temperature (°C),Ambient temperature (°C),ASC tube jacket temperature (°C),LED temperature (°C),Box temperature (°C),Sample RH (%),Span deviation,Mass concentration (μg/m³),Mass concentration (μg/m³),Mass concentration (μg/m³)
DateTimeUTC,F1_M11,P_M11,Q1_M11,Q2_M11,T1_M11,T2_M11,T3_M11,T4_M11,T5_M11,U1_M11,ZSPAN_M11,X0_M11,X2_M11,X1_M11
2022-09-20 19:00:00,,0827.7,5.00,0.00,29.7,28.4,00.0,38.3,31.7,16.8,0000.0,0016.74,0004.05,0003.17
2022-09-20 19:01:00,,0827.7,5.00,0.00,29.7,27.2,00.0,38.3,31.6,16.5,0000.0,0017.04,0004.02,0003.16
2022-09-20 19:02:00,,0827.7,5.00,0.00,29.7,26.6,00.0,38.2,31.5,17.0,0000.0,0015.33,0004.02,0003.16
2022-09-20 19:03:00,,0827.7,5.00,0.00,29.7,26.8,00.0,38.2,31.5,17.0,0000.0,0014.89,0004.03,0003.16
2022-09-20 19:04:00,,0827.7,5.00,0.00,29.6,27.1,00.0,38.2,31.3,16.9,0000.0,0015.57,0004.00,0003.17
2022-09-20 19:05:00,,0827.7,5.01,0.00,29.6,27.4,00.0,38.2,31.3,17.3,0000.0,0015.27,0004.00,0003.17
2022-09-20 19:06:00,,0827.7,4.98,0.00,29.6,27.7,00.0,38.2,31.4,17.2,0000.0,0015.94,0004.03,0003.18
2022-09-20 19:07:00,,0827.7,5.01,0.00,29.6,27.9,00.0,38.2,31.4,16.9,0000.0,0015.12,0004.06,0003.18
2022-09-20 19:08:00,,0827.7,4.99,0.00,29.6,28.1,00.0,38.2,31.5,16.8,0000.0,0015.27,0004.05,0003.19
2022-09-20 19:09:00,,0827.7,5.01,0.00,29.7,28.3,00.0,38.3,31.6,17.0,0000.0,0014.32,0004.05,0003.19
2022-09-20 19:10:00,,0827.7,5.00,0.00,29.7,27.9,00.0,38.3,31.6,16.8,0000.0,0014.40,0004.09,0003.20
2022-09-20 19:11:00,,0827.7,5.01,0.00,29.7,26.7,00.0,38.2,31.5,16.4,0000.0,0014.35,0004.06,0003.19
2022-09-20 19:12:00,,0827.7,5.00,0.00,29.6,26.5,00.0,38.2,31.5,16.5,0000.0,0014.05,0004.01,0003.19
2022-09-20 19:13:00,,0827.7,5.01,0.00,29.6,26.8,00.0,38.2,31.4,16.6,0000.0,0014.89,0004.05,0003.19
2022-09-20 19:14:00,,0827.7,5.00,0.00,29.6,27.1,00.0,38.2,31.3,16.6,0000.0,0014.26,0004.08,0003.19
2022-09-20 19:15:00,,0827.6,5.01,0.00,29.5,27.4,00.0,38.2,31.3,16.5,0000.0,0014.76,0004.20,0003.19
2022-09-20 19:16:00,,0827.6,4.98,0.00,29.6,27.7,00.0,38.2,31.4,16.6,0000.0,0015.35,0004.24,0003.19
2022-09-20 19:17:00,,0827.6,5.01,0.00,29.6,28.0,00.0,38.2,31.4,16.7,0000.0,0015.02,0004.25,0003.18
2022-09-20 19:18:00,,0827.5,4.99,0.00,29.6,28.2,00.0,38.2,31.5,16.5,0000.0,0014.89,0004.24,0003.18
2022-09-20 19:19:00,,0827.5,5.00,0.00,29.7,28.4,00.0,38.2,31.6,16.1,0000.0,0015.85,0004.22,0003.17
2022-09-20 19:20:00,,0827.5,5.01,0.00,29.7,28.5,00.0,38.2,31.6,15.9,0000.0,0016.71,0004.20,0003.16
2022-09-20 19:21:00,,0827.5,4.99,0.00,29.7,27.6,00.0,38.3,31.6,16.0,0000.0,0016.75,0004.20,0003.15
2022-09-20 19:22:00,,0827.5,5.00,0.00,29.7,26.6,00.0,38.2,31.5,16.5,0000.0,0016.96,0004.22,0003.16
2022-09-20 19:23:00,,0827.5,5.00,0.00,29.7,26.7,00.0,38.2,31.5,16.4,0000.0,0017.58,0004.27,0003.16
2022-09-20 19:24:00,,0827.5,4.99,0.00,29.6,27.0,00.0,38.2,31.4,16.6,0000.0,0017.99,0004.25,0003.15
2022-09-20 19:25:00,,0827.5,5.01,0.00,29.6,27.3,00.0,38.2,31.3,16.3,0000.0,0018.17,0004.25,0003.15
2022-09-20 19:26:00,,0827.5,5.01,0.00,29.6,27.6,00.0,38.2,31.3,16.3,0000.0,0018.43,0004.19,0003.14
2022-09-20 19:27:00,,0827.5,4.99,0.00,29.6,27.8,00.0,38.2,31.4,15.4,0000.0,0017.90,0004.16,0003.13
2022-09-20 19:28:00,,0827.5,5.01,0.00,29.6,28.1,00.0,38.2,31.5,15.3,0000.0,0017.62,0004.16,0003.13
2022-09-20 19:29:00,,0827.5,4.99,0.00,29.6,28.3,00.0,38.2,31.5,14.8,0000.0,0017.26,0004.15,0003.11
2022-09-20 19:30:00,,0827.5,5.00,0.00,29.7,28.5,00.0,38.2,31.6,15.8,0000.0,0016.28,0004.14,0003.10
2022-09-20 19:31:00,,0827.5,5.00,0.00,29.7,28.4,00.0,38.3,31.7,15.1,0000.0,0015.58,0004.12,0003.10
2022-09-20 19:32:00,,0827.5,5.01,0.00,29.7,27.3,00.0,38.3,31.6,12.7,0000.0,0015.42,0004.03,0003.07
2022-09-20 19:33:00,,0827.4,5.00,0.00,29.7,26.6,00.0,38.2,31.5,12.3,0000.0,0015.56,0003.98,0003.04
2022-09-20 19:34:00,,0827.4,5.00,0.00,29.6,26.8,00.0,38.2,31.5,12.3,0000.0,0015.17,0003.90,0002.99
2022-09-20 19:35:00,,0827.4,4.99,0.00,29.6,27.1,00.0,38.2,31.3,12.3,0000.0,0014.34,0003.80,0002.95
2022-09-20 19:36:00,,0827.4,5.01,0.00,29.6,27.4,00.0,38.2,31.3,12.5,0000.0,0014.20,0003.74,0002.89
2022-09-20 19:37:00,,0827.4,5.00,0.00,29.6,27.7,00.0,38.2,31.3,12.5,0000.0,0012.73,0003.64,0002.83
2022-09-20 19:38:00,,0827.4,5.01,0.00,29.6,27.9,00.0,38.2,31.4,12.6,0000.0,0012.56,0003.58,0002.78
2022-09-20 19:39:00,,0827.3,4.99,0.00,29.6,28.2,00.0,38.2,31.5,12.6,0000.0,0011.82,0003.49,0002.74
2022-09-20 19:40:00,,0827.3,4.99,0.00,29.7,28.4,00.0,38.3,31.5,12.5,0000.0,0011.83,0003.42,0002.73
2022-09-20 19:41:00,,0827.3,5.01,0.00,29.7,27.8,00.0,38.3,31.6,12.4,0000.0,0011.86,0003.37,0002.71
2022-09-20 19:42:00,,0827.2,5.01,0.00,29.6,26.6,00.0,38.2,31.5,12.7,0000.0,0011.60,0003.36,0002.66
2022-09-20 19:43:00,,0827.5,5.00,0.00,29.6,26.5,00.0,38.2,31.5,12.8,0000.0,0011.39,0003.38,0002.64
2022-09-20 19:44:00,,0827.2,5.00,0.00,29.6,26.8,00.0,38.2,31.4,13.1,0000.0,0010.61,0003.40,0002.65
2022-09-20 19:45:00,,0827.3,5.00,0.00,29.5,27.1,00.0,38.2,31.3,14.7,0000.0,0011.36,0003.42,0002.65
2022-09-20 19:46:00,,0827.2,4.99,0.00,29.5,27.4,00.0,38.2,31.3,15.4,0000.0,0012.03,0003.50,0002.69
2022-09-20 19:47:00,,0827.2,5.01,0.00,29.5,27.7,00.0,38.2,31.4,15.2,0000.0,0012.14,0003.51,0002.73
2022-09-20 19:48:00,,0827.4,4.99,0.00,29.6,28.0,00.0,38.2,31.4,14.6,0000.0,0012.80,0003.55,0002.78
2022-09-20 19:49:00,,0827.2,5.02,0.00,29.6,28.2,00.0,38.2,31.5,14.3,0000.0,0012.76,0003.60,0002.82
2022-09-20 19:50:00,,0827.2,5.00,0.00,29.6,28.4,00.0,38.2,31.5,14.2,0000.0,0013.44,0003.66,0002.85
2022-09-20 19:51:00,,0827.2,4.99,0.00,29.7,28.5,00.0,38.3,31.6,14.7,0000.0,0013.46,0003.70,0002.85
2022-09-20 19:52:00,,0827.2,5.02,0.00,29.7,27.6,00.0,38.3,31.6,14.8,0000.0,0013.52,0003.75,0002.86
2022-09-20 19:53:00,,0827.1,5.00,0.00,29.7,26.7,00.0,38.2,31.5,13.2,0000.0,0013.62,0003.75,0002.88
2022-09-20 19:54:00,,0827.2,5.00,0.00,29.6,26.8,00.0,38.2,31.5,12.9,0000.0,0013.24,0003.74,0002.89
2022-09-20 19:55:00,,0827.1,4.99,0.00,29.6,27.0,00.0,38.2,31.3,13.1,0000.0,0013.11,0003.70,0002.89
2022-09-20 19:56:00,,0827.3,5.00,0.00,29.6,27.3,00.0,38.2,31.2,13.3,0000.0,0011.81,0003.69,0002.89
2022-09-20 19:57:00,,0827.1,5.00,0.00,29.6,27.7,00.0,38.2,31.3,13.3,0000.0,0010.60,0003.63,0002.86
2022-09-20 19:58:00,,0827.0,5.00,0.00,29.6,27.9,00.0,38.2,31.4,13.7,0000.0,0009.94,0003.61,0002.83
2022-09-20 19:59:00,,0827.0,4.99,0.00,29.6,28.2,00.0,38.2,31.5,14.1,0000.0,0009.95,0003.62,0002.84
